• In Uzbekistan
  • List of Countries
  • For 7 days
  • Water Temperature
  • Satellite Maps
  • Weather Map
  • Weather Widgets
  • user-avatar
    Login

    Hourly Weather Voss

    Today, 21 October, Sunday

    Time Temperature Precipitation Wind Pressure Humidity
    00:00 +6°C° 1.2 mm 4 mps 716 mmHg 94%
    01:00 +7°C° 1.9 mm 4 mps 716 mmHg 95%
    02:00 +7°C° 1.9 mm 4 mps 715 mmHg 96%
    03:00 +8°C° 1.9 mm 4 mps 715 mmHg 97%
    04:00 +8°C° 1.7 mm 4 mps 714 mmHg 97%
    05:00 +8°C° 1.7 mm 4 mps 714 mmHg 97%
    06:00 +9°C° 1.7 mm 5 mps 714 mmHg 97%
    07:00 +10°C° 3.3 mm 4 mps 713 mmHg 97%
    08:00 +10°C° 3.3 mm 4 mps 713 mmHg 97%
    09:00 +10°C° 3.3 mm 4 mps 712 mmHg 97%
    10:00 +8°C° 3 mm 4 mps 712 mmHg 97%
    11:00 +9°C° 3 mm 3 mps 712 mmHg 97%
    12:00 +8°C° 3 mm 3 mps 711 mmHg 98%
    13:00 +6°C° 2.4 mm 4 mps 711 mmHg 97%
    14:00 +6°C° 2.4 mm 4 mps 711 mmHg 96%
    15:00 +5°C° 2.4 mm 4 mps 711 mmHg 96%
    16:00 +5°C° 1.8 mm 5 mps 712 mmHg 95%
    17:00 +3°C° 1.8 mm 6 mps 712 mmHg 93%
    18:00 +3°C° 1.8 mm 6 mps 713 mmHg 92%
    19:00 +3°C° 0.7 mm 7 mps 713 mmHg 91%
    20:00 +2°C° 0.7 mm 7 mps 713 mmHg 89%
    21:00 0°C° 0.7 mm 8 mps 713 mmHg 87%
    22:00 0°C° 0.8 mm 9 mps 713 mmHg 86%
    23:00 0°C° 0.8 mm 9 mps 713 mmHg 84%

    Tomorrow, 22 October, Monday

    Time Temperature Precipitation Wind Pressure Humidity
    00:00 -2°C° 0.8 mm 10 mps 714 mmHg 82%
    01:00 -2°C° 0.7 mm 10 mps 714 mmHg 83%
    02:00 -2°C° 0.7 mm 10 mps 714 mmHg 84%
    03:00 -2°C° 0.7 mm 10 mps 714 mmHg 85%
    04:00 -1°C° 0.8 mm 9 mps 714 mmHg 87%
    05:00 -1°C° 0.8 mm 8 mps 715 mmHg 88%
    06:00 -1°C° 0.8 mm 8 mps 715 mmHg 89%
    07:00 -1°C° 0.8 mm 8 mps 715 mmHg 89%
    08:00 -1°C° 0.8 mm 7 mps 715 mmHg 89%
    09:00 -1°C° 0.8 mm 7 mps 716 mmHg 88%
    10:00 -1°C° 0.6 mm 7 mps 716 mmHg 88%
    11:00 -1°C° 0.6 mm 7 mps 716 mmHg 88%
    12:00 -1°C° 0.6 mm 7 mps 716 mmHg 88%
    13:00 -1°C° 0.5 mm 7 mps 716 mmHg 89%
    14:00 -1°C° 0.5 mm 6 mps 715 mmHg 89%
    15:00 -1°C° 0.5 mm 6 mps 715 mmHg 90%
    16:00 0°C° 1.7 mm 5 mps 714 mmHg 92%
    17:00 0°C° 1.7 mm 5 mps 713 mmHg 94%
    18:00 0°C° 1.7 mm 4 mps 712 mmHg 95%
    19:00 +1°C° 3.3 mm 5 mps 710 mmHg 96%
    20:00 +1°C° 3.3 mm 5 mps 709 mmHg 96%
    21:00 +2°C° 3.3 mm 5 mps 708 mmHg 97%
    22:00 +2°C° 3.2 mm 6 mps 707 mmHg 97%
    23:00 +3°C° 3.2 mm 6 mps 706 mmHg 98%

    Day after tomorrow, 23 October, Tuesday

    Time Temperature Precipitation Wind Pressure Humidity
    00:00 +3°C° 3.2 mm 7 mps 705 mmHg 98%
    01:00 +3°C° 2.4 mm 7 mps 704 mmHg 98%
    02:00 +3°C° 2.4 mm 6 mps 704 mmHg 98%
    03:00 +3°C° 2.4 mm 6 mps 703 mmHg 98%
    04:00 +3°C° 2.2 mm 6 mps 703 mmHg 98%
    05:00 +3°C° 2.2 mm 6 mps 703 mmHg 98%
    06:00 +3°C° 2.2 mm 6 mps 702 mmHg 98%
    07:00 +3°C° 0.8 mm 6 mps 703 mmHg 97%
    08:00 +2°C° 0.8 mm 6 mps 703 mmHg 96%
    09:00 +2°C° 0.8 mm 5 mps 704 mmHg 94%
    10:00 +1°C° 0.2 mm 6 mps 704 mmHg 91%
    11:00 +1°C° 0.2 mm 6 mps 705 mmHg 88%
    12:00 -1°C° 0.2 mm 7 mps 706 mmHg 86%
    13:00 -1°C° 0.1 mm 7 mps 707 mmHg 86%
    14:00 -1°C° 0.1 mm 7 mps 707 mmHg 86%
    15:00 -2°C° 0.1 mm 7 mps 708 mmHg 86%
    16:00 -2°C° 0.1 mm 6 mps 709 mmHg 86%
    17:00 -3°C° 0.1 mm 6 mps 709 mmHg 87%
    18:00 -4°C° 0.1 mm 5 mps 710 mmHg 87%
    19:00 -4°C° 0.1 mm 5 mps 711 mmHg 88%
    20:00 -3°C° 0.1 mm 4 mps 711 mmHg 88%
    21:00 -3°C° 0.1 mm 4 mps 712 mmHg 88%
    22:00 -3°C° 0.1 mm 4 mps 712 mmHg 88%
    23:00 -3°C° 0.1 mm 4 mps 712 mmHg 88%

    24 October, Wednesday

    Time Temperature Precipitation Wind Pressure Humidity
    00:00 -3°C° 0.1 mm 4 mps 713 mmHg 89%
    01:00 -2°C° 0 mm 3 mps 713 mmHg 89%
    02:00 -2°C° 0 mm 3 mps 713 mmHg 89%
    03:00 -2°C° 0 mm 3 mps 713 mmHg 89%
    04:00 -2°C° 0 mm 3 mps 713 mmHg 89%
    05:00 -2°C° 0 mm 2 mps 714 mmHg 89%
    06:00 -2°C° 0 mm 2 mps 714 mmHg 89%
    07:00 -2°C° 0 mm 2 mps 714 mmHg 89%
    08:00 -2°C° 0 mm 2 mps 714 mmHg 89%
    09:00 -1°C° 0 mm 2 mps 714 mmHg 89%
    10:00 -1°C° 0 mm 2 mps 714 mmHg 88%
    11:00 +1°C° 0 mm 2 mps 714 mmHg 88%
    12:00 +1°C° 0 mm 2 mps 714 mmHg 87%
    13:00 +1°C° 0.7 mm 2 mps 713 mmHg 89%
    14:00 +1°C° 0.7 mm 2 mps 712 mmHg 91%
    15:00 +1°C° 0.7 mm 2 mps 712 mmHg 93%
    16:00 0°C° 1.1 mm 3 mps 711 mmHg 94%
    17:00 +1°C° 1.1 mm 3 mps 711 mmHg 95%
    18:00 +1°C° 1.1 mm 3 mps 710 mmHg 95%
    19:00 +1°C° 1.3 mm 4 mps 710 mmHg 96%
    20:00 +3°C° 1.3 mm 4 mps 710 mmHg 97%
    21:00 +4°C° 1.3 mm 4 mps 709 mmHg 98%
    22:00 +3°C° 0.3 mm 5 mps 709 mmHg 97%
    23:00 +3°C° 0.3 mm 5 mps 709 mmHg 97%

    25 October, Thursday

    Time Temperature Precipitation Wind Pressure Humidity
    00:00 +2°C° 0.3 mm 5 mps 709 mmHg 97%
    01:00 +2°C° 0.2 mm 5 mps 709 mmHg 96%
    02:00 +2°C° 0.2 mm 5 mps 709 mmHg 96%
    03:00 +2°C° 0.2 mm 5 mps 708 mmHg 95%
    04:00 +1°C° 0.3 mm 5 mps 708 mmHg 95%
    05:00 +1°C° 0.3 mm 4 mps 708 mmHg 94%
    06:00 +1°C° 0.3 mm 4 mps 708 mmHg 94%
    07:00 +1°C° 0.2 mm 4 mps 708 mmHg 94%
    08:00 +2°C° 0.2 mm 3 mps 708 mmHg 93%
    09:00 +2°C° 0.2 mm 3 mps 708 mmHg 93%
    10:00 +2°C° 0.2 mm 3 mps 708 mmHg 93%
    11:00 +2°C° 0.2 mm 3 mps 707 mmHg 93%
    12:00 +2°C° 0.2 mm 3 mps 707 mmHg 92%
    13:00 +2°C° 0.3 mm 3 mps 707 mmHg 93%
    14:00 +2°C° 0.3 mm 3 mps 707 mmHg 93%
    15:00 +2°C° 0.3 mm 3 mps 707 mmHg 93%
    16:00 +1°C° 0.3 mm 3 mps 707 mmHg 93%
    17:00 +1°C° 0.3 mm 3 mps 706 mmHg 93%
    18:00 +1°C° 0.3 mm 3 mps 706 mmHg 93%
    19:00 +1°C° 0.3 mm 3 mps 706 mmHg 93%
    20:00 +2°C° 0.3 mm 2 mps 706 mmHg 93%
    21:00 +1°C° 0.3 mm 2 mps 706 mmHg 94%
    22:00 +1°C° 0.4 mm 2 mps 705 mmHg 94%
    23:00 +1°C° 0.4 mm 2 mps 705 mmHg 94%

    26 October, Friday

    Time Temperature Precipitation Wind Pressure Humidity
    00:00 +1°C° 0.4 mm 2 mps 705 mmHg 94%
    01:00 +1°C° 0.2 mm 2 mps 705 mmHg 94%
    02:00 +1°C° 0.2 mm 2 mps 704 mmHg 94%
    03:00 +1°C° 0.2 mm 1 mps 704 mmHg 94%
    04:00 +1°C° 0.1 mm 1 mps 704 mmHg 94%
    05:00 0°C° 0.1 mm 1 mps 704 mmHg 94%
    06:00 0°C° 0.1 mm 1 mps 704 mmHg 94%
    07:00 +1°C° 0 mm 1 mps 704 mmHg 93%
    08:00 +1°C° 0 mm 1 mps 704 mmHg 92%
    09:00 +1°C° 0 mm 1 mps 704 mmHg 91%
    10:00 +2°C° 0 mm 1 mps 704 mmHg 90%
    11:00 +2°C° 0 mm 1 mps 705 mmHg 88%
    12:00 +1°C° 0 mm 2 mps 705 mmHg 87%
    13:00 -1°C° 0 mm 2 mps 705 mmHg 87%
    14:00 -1°C° 0 mm 2 mps 705 mmHg 88%
    15:00 -2°C° 0 mm 2 mps 705 mmHg 88%
    16:00 -3°C° 0 mm 2 mps 705 mmHg 89%
    17:00 -4°C° 0 mm 2 mps 705 mmHg 90%
    18:00 -5°C° 0 mm 2 mps 706 mmHg 90%
    19:00 -5°C° 0 mm 2 mps 706 mmHg 89%
    20:00 -5°C° 0 mm 2 mps 706 mmHg 89%
    21:00 -6°C° 0 mm 2 mps 706 mmHg 88%
    22:00 -6°C° 0 mm 2 mps 706 mmHg 87%
    23:00 -4°C° 0 mm 1 mps 706 mmHg 85%
    Show more